ESGT

Details ICAO ESGT (THN)
Name Trollhattan Vanersborg
Region Sweden
Timezone Europe/Stockholm (UTC+2.0)
Plans Departing 9
Arriving 12
Stats Elevation 137 ft / 42 m (AMSL)
Location 58.317861° 12.344758°
Runways 1
Magnetic Variation 3.850° E
Sunrise 2018-05-22 02:32:15 UTC / 2018-05-22 04:32:15 Local
Sunset 2018-05-22 19:45:11 UTC / 2018-05-22 21:45:11 Local
Advertisement - Login to hide

Runways

ID Width Length Bearing (true) Bearing (mag) Surface Threshold Offset Overrun Length
15 98 ft / 30 m 5,598 ft / 1,706 m 146.13° 142.28° Asphalt 0 ft / 0 m 0 ft / 0 m
33 98 ft / 30 m 5,598 ft / 1,706 m 326.14° 322.29° Asphalt 689 ft / 210 m 0 ft / 0 m

Approach Navaids

Runway Type Ident Frequency Range Bearing (true) Bearing (mag) Slope Elevation
33 Localiser TRH 111.90 MHz 18 nm / 33 km 326.13° 322.28° - 137 ft / 42 m (AMSL)
33 Glidescope TRH 111.90 MHz 10 nm / 19 km 326.13° 322.28° 3.00° 137 ft / 42 m (AMSL)

Map

Weather


0- 5 10 15 20 25 30 35+ Temperature / ° C

Clouds and Precipitation
Forecast for 2018-05-22 00:00 UTC. Updated 6 hours ago

Ground ~20,000 ft ~40,000 ft Winds

METAR

ESGT 220450Z VRB02KT CAVOK 12/09 Q1021

TAF

Not found

Frequencies

Tower 122.72 MHz TWR
Warning: Do not use this data for real-world aviation or navigation. No guarantee of current accuracy is given.